This demonstration page uses our WeatherBlox Daily Observations layout. Learn more.

Left ArrowRight Arrow

39.29038, -76.61219

Hourly Observations for July 3, 2022

Temp ( °F °C ) Dew Point ( °F °C ) Humidity (%) Winds ( mph kmh ) Pressure ( in mb ) Visibility ( mi km ) Precip ( " mm )
12:14 am 00:14 Mostly Cloudy with Thunderstorms 75 23.9 71 21.7 88 88 Calm 29.95 1014 10 16 0.00 0.00
12:54 am 00:54 Cloudy with Thunderstorms 73 22.8 69 20.6 87 87 SSW 6 9 29.96 1015 7 11 0.01 0.25
1:54 am 01:54 Mostly Cloudy with Light Rain 73 22.8 70 21.1 90 90 S 6 9 29.95 1014 8 13 0.00 0.00
2:54 am 02:54 Mostly Cloudy 72 22.2 70 21.1 94 94 NW 6 9 29.95 1014 10 16 0.00 0.00
3:54 am 03:54 Mostly Cloudy 73 22.8 70 21.1 90 90 Calm 29.95 1014 10 16 0.00 0.00
4:54 am 04:54 Cloudy 73 22.8 70 21.1 90 90 WSW 3 6 29.97 1015 10 16 0.00 0.00
5:54 am 05:54 Cloudy 73 22.8 70 21.1 90 90 Calm 29.97 1015 10 16 0.00 0.00
6:54 am 06:54 Cloudy 74 23.3 70 21.1 88 88 WNW 3 6 29.99 1016 10 16 0.00 0.00
7:54 am 07:54 Cloudy with Light Rain 74 23.3 70 21.1 88 88 Calm 30.01 1016 10 16 0.01 0.25
8:54 am 08:54 Cloudy 77 25 68 20 74 74 Calm 30.02 1017 10 16 0.00 0.00
9:54 am 09:54 Mostly Cloudy 77 25 63 17.2 62 62 VRB 6 9 30.03 1017 10 16 0.00 0.00
10:54 am 10:54 Cloudy 78 25.6 62 16.7 58 58 N 7 11 30.05 1018 10 16 0.00 0.00
11:54 am 11:54 Mostly Cloudy 80 26.7 62 16.7 54 54 N 7 11 30.06 1018 10 16 0.00 0.00
12:54 pm 12:54 Mostly Cloudy 84 28.9 62 16.7 48 48 VRB 6 9 30.05 1018 10 16 0.00 0.00
1:54 pm 13:54 Partly Cloudy 88 31.1 59 15 38 38 N 8 13 30.03 1017 10 16 0.00 0.00
2:54 pm 14:54 Mostly Sunny 89 31.7 57 13.9 34 34 NW 9 15 30.01 1016 10 16 0.00 0.00
3:54 pm 15:54 Mostly Sunny 90 32.2 55 12.8 31 31 NNW 6 9 30.03 1017 10 16 0.00 0.00
4:54 pm 16:54 Mostly Sunny 90 32.2 55 12.8 31 31 NE 7 11 30.01 1016 10 16 0.00 0.00
5:54 pm 17:54 Mostly Sunny 89 31.7 54 12.2 30 30 NW 8 13 30.01 1016 10 16 0.00 0.00
6:54 pm 18:54 Mostly Sunny 88 31.1 54 12.2 31 31 NW 6 9 30.02 1017 10 16 0.00 0.00
7:54 pm 19:54 Mostly Sunny 85 29.4 56 13.3 37 37 VRB 5 7 30.03 1017 10 16 0.00 0.00
8:54 pm 20:54 Mostly Clear 79 26.1 60 15.6 52 52 Calm 30.04 1017 10 16 0.00 0.00
9:54 pm 21:54 Clear 75 23.9 62 16.7 64 64 Calm 30.06 1018 10 16 0.00 0.00
10:54 pm 22:54 Clear 72 22.2 62 16.7 71 71 W 3 6 30.07 1018 10 16 0.00 0.00
11:54 pm 23:54 Clear 73 22.8 63 17.2 71 71 Calm 30.09 1019 10 16 0.00 0.00

Powered by AerisWeather